STARLINK-1083 (44939 NORAD) Tracking and Keplerian Element Data

This shows tracking and keplerian element data for the satellite.

Feedback or suggestion? Click here.




ElementValue
Catalog44939
NameSTARLINK-1083
Epoch Orbit1355
Epoch Day93.91667824
Epoch Year2020
RAAN333.7664
Inclination52.989
Eccentricity0.0001545
Argument of Perigee72.3392
Mean Anonmoly245.5732
Mean Motion15.05593833
Decay Rate-0.00014115
L11 44939U 20001AB 20093.91667824 -.00014115 00000-0 -95112-3 0 9994
L22 44939 52.9890 333.7664 0001545 72.3392 245.5732 15.05593833 13551

Live tracking and technical data element details for STARLINK-1083 (NORAD 44939). STARLINK-1083 can be tracked NOW for your location showing map with azimuth and elevation plus other details from your city location.

Track the satellite on the map from your city or location and see movement details for azimuth, elevation, latitude, longitude, range, height, and movement on the map or in text.







IsCatalogInMostPopularTable: catalog: 44939, numindb: 18
Update: records affected: 1



GetName: 44939 STARLINK-1083

Hit Count: updated at: Fri, 10 Apr 2020 17:54:56 GMT